sat.trackr.live / text

‹ back to catalog

STARLINK-37179

NORAD 68618 · 2026-073S

PAYLOAD ACTIVE UNKNOWN

§ Identity

Operator
Country
US
Launch date
2026-04-07
Launch site
AFWTR
Launch vehicle
Mass (kg)
RCS (m²)

Purposes: comms

External: N2YO · Heavens-Above · Gunter

§ Orbital elements

Epoch: 2026-05-25T04:00:03.998880Z

Period
92.95 min
Inclination
97.2849°
Eccentricity
0.0001926
Mean motion
15.49207431 rev/d
Perigee alt
417.7 km
Apogee alt
420.4 km
Semi-major
6,797.2 km
B*
-4.8262e-4
RAAN
344.6052°
Arg perigee
90.7382°
Mean anomaly
97.5829°
Rev number
599

§ Raw data

STARLINK-371791 68618U 26073S   26145.16671295 -.00026269  00000+0 -48262-3 0  99932 68618  97.2849 344.6052 0001926  90.7382  97.5829 15.49207431  5990

JSON: /api/v1/satellites/68618 · /tle

For live sub-satellite position, see the globe view (requires WebGL).

§ Visibility from observer

Set your observer location to see the next 7 days of passes ≥ 10°. The values pass through the URL so the page stays shareable.

No JS? Fill the form by hand. The geolocation button needs JavaScript.